Voltar ao catálogo

KUIPER-00015

AtivoComunicaçõesLEO
NORAD 63731·PAYLOAD·🇺🇸 United States

Lançado Apr 28, 2025 de Cape Canaveral Space Force Station

Loading…

Próximas Passagens (próximas 24 horas)

TLE

AtualizadoSource: CelesTrak SupGP

Época: Sep 15, 2026, 01:33 UTC

1 63731C 25088H   26258.06498843  .00001540  00000+0  20158-3 0  2584
2 63731  51.9000   0.6942 0000318 112.9413 287.9369 14.79930932    13

Acompanhe KUIPER-00015 em tempo real com AllMySat

Download on the App Store